Temperature
7 5 4 5 5 6 6 6 5 6 6 6 5 5 5 5 5 4 4 5 5 5 6 6 6 7 7 7 7 7 7 7 7 7 7 7 7 7 7 7 7 7 7 7
5 4 5 6 6 6 6 5 5 5 6 6 5 4 5 4 4 4 4 4 5 5 5 5 6 6 6 6 6 6 6 6 6 6 6 6 6 6 6 6 6 6 6 6
5 5 6 6 5 5 5 5 4 5 5 5 4 4 4 4 4 4 5 5 5 4 5 5 5 5 6 6 6 6 6 6 6 6 6 6 5 5 5 5 6 5 5 6
5 5 5 5 5 5 4 5 5 4 4 3 4 3 4 4 3 3 3 4 4 4 4 4 4 5 5 5 5 5 5 5 5 5 5 5 5 5 5 5 5 5 5 5
4 4 4 4 5 5 4 5 4 4 3 2 3 3 3 3 3 3 3 3 4 4 4 4 4 4 4 4 5 5 5 5 5 5 5 5 5 5 5 5 4 4 4 4
4 4 4 4 4 4 4 4 3 2 2 2 3 2 3 2 3 3 2 3 3 3 3 3 3 3 3 4 4 4 4 4 4 4 4 4 4 4 4 4 4 4 4 4
3 4 4 4 4 3 3 2 2 2 2 2 2 2 3 3 2 2 2 2 3 3 3 3 3 3 3 3 3 3 3 3 3 3 3 3 3 3 3 3 3 3 3 3
3 3 3 3 3 3 2 2 2 3 2 2 1 2 2 2 2 2 3 2 2 2 2 2 2 2 2 2 2 3 3 3 3 3 3 3 3 3 3 3 3 3 3 3
2 3 3 3 3 3 2 2 2 1 0 0 1 1 1 2 1 1 1 1 1 1 2 2 2 2 2 2 2 2 2 2 2 2 2 2 2 2 2 2 2 2 2 2
2 1 2 2 3 2 2 1 0 1 1 1 1 0 1 2 1 0 -0 -0 1 1 1 1 1 1 1 1 1 1 1 2 2 2 1 1 2 1 2 2 2 2 2 2
1 1 1 1 1 1 1 1 1 -0 0 0 0 1 1 1 1 -0 -1 -0 -0 0 0 0 0 0 0 0 1 1 1 1 1 1 1 1 1 1 1 1 1 1 1 1
0 -1 -0 0 0 1 1 0 -0 1 -0 -1 -1 1 1 -0 -0 -0 -1 -0 -0 -0 -0 -0 -0 -0 -0 -0 0 0 0 0 0 0 0 0 0 0 0 0 1 1 1 1
0 -1 0 1 1 -0 -0 -1 -1 -1 -1 -2 -1 1 -0 -1 -1 -1 -1 -1 -1 -1 -1 -1 -1 -1 -1 -1 -1 -1 -0 -0 -0 -1 -1 -1 -0 -0 -0 -0 0 -0 0 0
1 -1 -0 1 1 -0 -1 -1 -1 -1 -2 -2 -2 -0 -0 -1 -2 -1 -1 -1 -1 -2 -2 -2 -2 -2 -2 -2 -2 -2 -1 -1 -1 -1 -1 -1 -1 -1 -1 -1 -1 -1 -1 -0
-1 -2 -2 -2 -1 -1 -1 -1 -2 -2 -2 -1 -1 -2 -1 -2 -2 -2 -2 -2 -2 -3 -3 -3 -3 -3 -3 -3 -3 -2 -2 -2 -2 -2 -2 -2 -2 -2 -2 -1 -1 -1 -1 -1
-2 -2 -3 -2 -2 -2 -2 -2 -2 -2 -2 -2 -2 -2 -2 -2 -2 -3 -3 -3 -3 -3 -3 -3 -3 -3 -3 -3 -3 -3 -3 -3 -3 -3 -3 -3 -3 -2 -2 -2 -2 -2 -2 -2
-3 -3 -3 -2 -3 -2 -2 -2 -2 -3 -3 -3 -2 -2 -3 -4 -4 -3 -3 -3 -3 -4 -4 -4 -4 -4 -4 -4 -4 -4 -4 -4 -4 -4 -4 -3 -3 -3 -3 -3 -3 -3 -3 -2
-4 -3 -3 -3 -3 -2 -1 -3 -4 -4 -4 -5 -4 -4 -4 -4 -3 -3 -3 -4 -4 -4 -4 -4 -4 -4 -4 -4 -4 -4 -4 -4 -4 -4 -4 -4 -4 -4 -4 -4 -4 -4 -3 -3
-4 -4 -4 -4 -4 -3 -2 -3 -5 -4 -4 -5 -5 -5 -5 -4 -4 -4 -3 -4 -4 -4 -5 -5 -5 -5 -5 -5 -5 -5 -5 -5 -5 -5 -5 -5 -5 -4 -4 -4 -4 -4 -4 -4
-5 -5 -4 -4 -3 -3 -2 -3 -4 -4 -4 -4 -5 -6 -5 -5 -5 -4 -4 -4 -5 -5 -5 -5 -5 -5 -5 -5 -5 -5 -5 -5 -5 -5 -5 -5 -5 -5 -5 -5 -5 -5 -5 -5
-5 -5 -5 -5 -4 -4 -4 -5 -4 -3 -3 -4 -4 -5 -5 -6 -5 -4 -5 -5 -5 -6 -6 -6 -6 -6 -6 -6 -6 -6 -6 -5 -6 -6 -6 -6 -6 -6 -6 -5 -5 -5 -5 -5
-5 -6 -6 -5 -5 -3 -5 -6 -5 -4 -3 -4 -4 -4 -5 -5 -5 -5 -5 -6 -6 -6 -6 -6 -6 -6 -6 -6 -6 -6 -6 -6 -6 -6 -6 -6 -6 -6 -6 -6 -6 -6 -6 -6
-6 -5 -5 -5 -4 -4 -5 -4 -4 -4 -4 -4 -4 -5 -5 -5 -5 -6 -6 -6 -6 -7 -7 -7 -7 -7 -7 -7 -7 -7 -7 -7 -7 -7 -7 -7 -7 -7 -7 -7 -7 -7 -7 -7
-7 -7 -6 -6 -6 -6 -5 -4 -4 -4 -4 -4 -5 -5 -5 -6 -6 -6 -6 -7 -7 -7 -7 -7 -8 -8 -7 -7 -7 -7 -8 -8 -8 -8 -8 -8 -7 -7 -7 -7 -7 -7 -7 -7
-6 -8 -7 -7 -7 -7 -6 -5 -5 -5 -5 -5 -6 -6 -6 -6 -7 -7 -7 -7 -7 -8 -8 -8 -8 -8 -8 -8 -8 -8 -8 -8 -8 -8 -8 -8 -8 -8 -8 -8 -8 -8 -7 -8
-8 -8 -7 -6 -6 -7 -6 -5 -5 -6 -6 -6 -6 -6 -7 -7 -7 -7 -7 -8 -8 -8 -8 -8 -8 -8 -8 -8 -8 -9 -9 -9 -9 -9 -9 -9 -9 -8 -8 -8 -8 -8 -8 -8
Wind_Speed
3 4 1 5 6 5 4 4 6 6 3 3 6 8 9 6 4 5 5 5 4 4 1 1 1 2 2 2 3 3 4 4 3 3 3 3 3 2 2 2 4 5 5 5
4 1 6 5 3 2 2 4 6 6 3 3 6 9 9 7 7 7 8 7 6 3 1 1 1 2 2 2 3 3 4 3 4 4 3 3 3 2 2 2 3 4 5 5
4 4 3 1 2 1 3 5 5 5 5 3 3 7 7 6 4 5 6 6 5 6 5 3 2 2 1 1 3 3 4 4 3 3 3 2 2 2 1 2 2 2 4 5
1 3 2 1 2 2 6 5 4 4 3 4 1 6 8 5 4 5 6 5 5 4 4 3 3 2 2 2 3 3 3 3 3 3 4 5 4 3 3 3 2 2 3 4
2 2 1 3 5 4 5 4 3 3 3 4 3 4 7 3 5 6 6 6 6 5 5 4 3 3 2 2 2 3 3 2 2 3 5 5 4 3 2 3 3 2 1 3
3 2 1 3 3 3 2 2 2 2 1 5 6 5 6 5 6 5 4 5 5 5 4 3 2 1 1 1 1 2 3 3 3 3 4 5 5 4 4 3 4 3 2 1
4 3 2 1 2 3 3 3 3 4 2 6 3 3 8 6 5 5 5 4 4 4 4 3 2 2 1 1 1 1 3 3 3 3 4 4 5 5 6 5 5 4 3 2
2 5 3 1 1 2 2 4 4 4 5 5 2 5 6 5 3 2 2 2 2 2 3 3 3 3 2 2 2 2 3 3 3 4 4 4 4 4 4 4 4 5 4 3
2 5 3 2 1 2 2 2 3 3 1 3 5 6 7 2 3 3 2 1 1 2 2 2 1 1 1 2 2 2 3 3 3 4 4 3 4 4 4 4 4 4 3 3
2 4 5 3 1 1 2 3 2 2 2 4 6 5 4 5 4 4 4 3 3 2 1 1 1 1 1 1 1 1 2 3 3 4 4 4 4 4 4 4 5 4 4 4
0 2 4 2 2 4 1 2 2 2 3 3 4 6 4 4 4 4 4 3 3 2 2 2 1 1 1 1 1 1 1 1 2 3 3 3 4 4 4 4 5 5 4 4
1 2 4 6 4 2 4 5 5 3 4 3 3 7 3 2 3 3 3 3 3 3 2 2 1 2 2 2 2 2 1 2 3 3 3 3 3 3 4 4 5 5 5 5
1 1 3 5 3 2 1 2 3 2 2 4 5 8 2 3 4 3 4 4 4 3 3 3 2 2 3 3 3 3 2 3 3 3 3 3 2 3 4 4 4 5 5 5
1 2 5 7 6 3 5 5 4 4 4 6 10 12 10 8 8 7 5 5 4 4 3 3 3 3 3 3 3 3 3 3 3 2 3 3 3 3 4 4 4 5 5 6
2 4 6 9 9 7 9 10 8 9 9 10 11 11 13 10 7 6 5 4 3 4 4 4 4 4 4 4 3 3 3 3 3 3 3 4 3 3 3 3 4 4 5 5
2 3 3 7 7 7 10 12 11 11 10 12 13 14 11 8 4 4 5 4 4 5 6 5 5 5 5 5 4 4 4 4 3 3 4 3 3 3 3 3 3 4 5 5
3 3 2 6 6 6 8 9 9 7 6 7 10 9 5 4 5 5 5 5 5 6 6 5 5 5 6 6 5 5 4 3 3 3 3 3 3 3 4 4 3 3 4 5
5 4 3 3 4 7 6 1 4 5 6 6 6 6 5 6 6 4 4 4 6 6 5 5 5 6 5 5 4 3 3 2 3 3 4 4 4 4 3 3 4 4 4 4
4 5 3 2 4 9 7 3 2 4 6 4 6 7 5 4 4 4 3 2 4 5 5 5 5 5 4 4 4 3 2 2 2 3 4 4 4 4 3 4 4 3 3 4
2 3 3 3 4 6 6 2 1 2 5 4 4 5 4 2 3 5 3 3 4 5 4 4 4 3 4 5 3 2 3 3 4 4 4 4 3 4 4 4 4 3 3 4
1 2 5 6 7 8 5 1 2 2 6 3 3 4 3 4 6 5 4 4 4 4 4 4 3 3 4 4 3 3 3 4 4 4 3 3 3 4 4 3 3 3 3 3
6 5 6 5 6 9 3 4 5 6 2 1 2 3 4 5 4 4 4 4 4 4 4 4 3 4 4 3 3 3 4 4 3 2 2 3 3 3 3 2 3 3 3 3
7 8 6 8 8 3 4 5 4 2 2 2 3 4 4 4 5 4 4 4 4 4 4 4 3 4 4 4 3 3 5 4 3 2 2 3 3 3 3 2 3 2 3 3
5 3 4 6 8 6 4 4 3 3 3 4 3 3 3 5 5 5 4 4 4 4 3 3 3 4 5 5 4 4 4 3 2 3 3 3 2 3 2 2 3 3 3 3
5 4 4 7 7 5 5 5 6 4 3 3 2 3 3 4 5 4 4 4 4 4 3 3 3 4 5 5 5 4 4 3 2 3 3 3 3 3 2 3 3 3 4 5
4 5 6 8 5 5 5 4 3 3 4 3 3 3 3 3 4 4 4 4 3 3 3 3 4 4 5 5 5 5 4 2 2 3 3 3 2 2 2 2 3 4 4 6
Wind_Direction
49 73 246 251 233 228 227 237 263 269 272 250 245 263 270 250 226 227 226 221 227 230 219 160 145 143 138 143 154 166 168 173 161 161 163 159 170 163 136 135 144 143 144 143
49 287 259 257 265 234 235 255 273 286 284 257 258 271 271 246 228 220 218 219 217 210 191 159 125 117 137 165 175 181 184 178 175 176 179 172 168 166 150 136 138 145 148 149
176 250 277 265 329 300 266 233 243 264 304 312 292 288 277 270 244 233 226 223 213 198 201 194 187 180 163 184 198 198 199 190 184 172 153 140 130 123 146 166 160 161 161 159
241 289 295 293 281 258 262 248 241 257 294 282 238 279 278 268 262 244 233 224 222 212 201 196 195 194 206 223 219 200 193 186 185 170 168 170 175 183 196 189 183 182 164 155
264 279 266 252 258 237 245 267 249 247 241 280 260 235 280 283 260 251 234 227 224 218 202 199 202 205 214 215 219 207 191 186 184 178 176 180 186 188 181 174 173 177 162 162
256 270 220 242 264 234 258 2 357 34 98 264 242 215 276 248 241 256 247 232 222 218 208 201 194 174 218 226 218 214 188 195 195 184 180 180 184 183 179 186 189 192 188 178
323 302 310 320 351 354 47 69 8 347 324 255 257 220 256 256 249 230 234 232 219 204 189 186 190 197 213 241 235 211 199 205 202 193 190 191 193 189 191 198 198 198 198 215
323 295 285 330 177 226 233 152 177 225 243 279 298 236 258 267 284 259 226 219 211 203 196 196 199 197 207 234 240 222 212 223 208 200 203 199 194 193 197 199 199 202 205 209
233 268 302 307 293 170 165 196 191 170 253 272 269 282 299 286 334 343 329 331 262 225 206 195 198 195 206 239 247 233 225 227 219 207 208 209 199 195 199 198 193 200 201 208
186 271 287 302 350 325 176 162 113 155 227 268 284 274 262 266 276 301 305 289 274 254 223 201 215 256 278 263 275 275 230 227 228 219 211 213 209 205 197 194 201 203 200 205
155 233 298 332 214 228 160 163 172 179 189 203 267 269 236 233 245 254 268 275 261 254 244 236 264 306 309 310 321 307 268 250 242 234 225 220 216 209 197 199 202 203 206 205
187 166 268 261 255 249 204 196 173 195 242 216 238 267 273 251 275 260 273 294 284 266 269 274 297 328 318 308 311 299 278 269 258 245 233 231 225 211 209 211 209 204 209 211
162 151 310 322 321 340 260 224 194 172 180 213 227 260 313 339 320 304 290 296 298 290 297 304 310 308 299 295 294 296 286 273 271 251 233 236 237 224 221 220 216 208 207 210
156 192 215 238 254 247 261 257 231 190 213 236 237 257 284 293 292 296 294 290 291 287 283 290 291 292 291 286 282 284 287 278 272 262 243 240 241 236 234 227 219 215 210 211
135 228 245 259 266 260 258 258 240 225 224 232 252 255 270 278 275 277 283 289 303 305 301 287 283 283 284 286 282 277 280 279 274 263 257 255 252 243 234 233 229 221 218 220
166 219 271 282 275 266 269 262 246 242 241 242 259 270 270 281 287 285 289 289 287 290 293 295 294 292 288 286 285 279 276 280 277 262 262 264 254 243 238 237 235 231 224 223
197 184 246 276 303 318 277 252 225 223 221 215 238 252 277 290 288 282 282 279 277 281 287 290 290 285 285 284 283 275 271 280 275 266 268 264 253 246 245 246 234 236 237 228
181 190 219 278 340 259 249 222 201 214 246 232 244 268 273 268 279 282 281 279 285 289 290 291 292 295 298 297 293 286 276 266 262 265 267 267 258 251 252 247 241 239 240 236
182 179 199 220 259 274 289 265 195 215 273 236 241 269 287 305 321 301 297 285 279 287 287 283 286 291 303 306 303 303 291 273 268 268 266 266 259 254 249 247 248 246 238 240
84 154 181 197 234 253 262 270 228 135 282 254 219 253 272 331 310 289 311 321 310 308 304 303 311 320 320 315 316 313 299 288 276 273 272 270 259 249 244 246 250 248 240 239
141 188 208 218 237 262 265 250 116 180 263 282 222 242 234 228 244 276 303 309 307 312 316 321 326 325 318 321 326 310 301 282 278 282 281 277 269 259 251 248 248 241 245 241
183 190 205 191 221 254 218 140 189 230 285 272 259 259 249 254 275 289 294 300 310 319 324 328 329 324 325 331 328 317 305 300 301 292 288 286 282 276 268 248 254 246 233 238
205 201 199 202 221 256 182 206 238 254 257 257 253 271 264 265 276 286 291 293 298 304 312 324 325 322 325 328 328 310 310 322 325 320 301 294 292 287 277 260 255 252 237 236
247 215 210 246 259 259 250 260 286 280 266 267 260 265 256 264 275 283 286 291 294 299 307 322 328 325 321 325 326 316 320 325 324 315 310 305 296 291 281 269 257 245 235 236
232 198 225 251 271 292 268 253 261 276 280 282 286 274 264 261 276 282 288 286 284 296 306 313 309 305 309 319 319 321 325 329 323 312 306 305 297 286 280 277 263 258 246 242
215 205 217 244 238 229 262 272 265 260 267 264 273 291 285 261 269 283 285 284 283 292 306 309 308 308 311 318 318 322 324 322 312 307 305 299 296 295 291 290 305 296 281 275
Height
1504 1509 1511 1509 1508 1507 1507 1508 1508 1505 1503 1503 1502 1500 1497 1496 1496 1494 1494 1493 1493 1492 1493 1494 1495 1496 1497 1498 1500 1501 1503 1504 1505 1507 1508 1509 1511 1513 1514 1516 1517 1518 1520 1522
1509 1510 1507 1505 1505 1505 1506 1509 1508 1505 1502 1502 1502 1498 1494 1492 1491 1490 1490 1490 1489 1490 1491 1491 1492 1493 1494 1495 1497 1499 1500 1501 1502 1503 1505 1507 1508 1509 1511 1513 1514 1515 1517 1518
1508 1508 1504 1505 1506 1506 1506 1507 1507 1506 1503 1501 1502 1498 1492 1488 1488 1487 1487 1487 1487 1487 1488 1488 1489 1490 1491 1492 1494 1495 1496 1497 1499 1500 1502 1504 1505 1506 1508 1509 1510 1512 1514 1515
1508 1506 1505 1505 1506 1506 1506 1503 1504 1504 1507 1508 1505 1505 1492 1488 1487 1485 1485 1485 1485 1485 1485 1486 1486 1487 1488 1489 1491 1492 1493 1494 1495 1497 1498 1500 1500 1502 1503 1505 1507 1509 1510 1512
1508 1506 1505 1505 1504 1504 1503 1501 1503 1504 1507 1509 1506 1507 1496 1489 1486 1484 1483 1482 1482 1482 1483 1483 1483 1484 1485 1486 1487 1488 1490 1491 1492 1493 1494 1496 1497 1499 1500 1502 1504 1505 1507 1508
1506 1504 1504 1503 1502 1502 1501 1503 1504 1507 1510 1510 1503 1506 1496 1490 1484 1481 1481 1480 1480 1480 1481 1481 1481 1482 1483 1484 1484 1485 1486 1488 1489 1490 1491 1492 1494 1495 1497 1498 1500 1501 1503 1505
1508 1505 1503 1502 1503 1503 1504 1509 1513 1513 1516 1507 1502 1501 1492 1482 1480 1478 1478 1478 1478 1478 1478 1479 1479 1479 1480 1480 1481 1482 1483 1484 1486 1487 1488 1489 1490 1491 1493 1494 1496 1497 1498 1500
1513 1509 1504 1503 1504 1506 1506 1507 1513 1513 1514 1509 1503 1500 1488 1480 1478 1476 1476 1476 1476 1476 1476 1476 1477 1477 1477 1478 1478 1479 1480 1481 1482 1483 1484 1485 1487 1488 1489 1490 1492 1493 1495 1496
1514 1509 1504 1503 1503 1504 1506 1509 1508 1514 1515 1515 1504 1498 1487 1479 1478 1477 1476 1475 1474 1474 1474 1474 1474 1474 1475 1475 1475 1476 1477 1477 1478 1479 1481 1481 1483 1484 1485 1486 1488 1489 1491 1492
1512 1513 1507 1504 1503 1503 1504 1506 1512 1512 1512 1510 1505 1501 1490 1480 1479 1478 1477 1475 1474 1474 1473 1473 1473 1472 1472 1473 1473 1473 1473 1474 1474 1475 1476 1477 1478 1480 1481 1482 1483 1485 1486 1488
1512 1515 1510 1507 1506 1505 1506 1507 1508 1512 1512 1513 1509 1496 1481 1479 1477 1478 1476 1474 1473 1472 1472 1471 1471 1471 1470 1470 1470 1470 1470 1470 1471 1471 1472 1473 1474 1475 1476 1477 1479 1481 1482 1484
1512 1516 1514 1508 1504 1503 1503 1504 1508 1510 1511 1514 1512 1496 1478 1477 1476 1475 1474 1473 1472 1472 1471 1470 1469 1468 1468 1467 1467 1467 1467 1467 1468 1468 1468 1469 1470 1470 1472 1473 1474 1476 1477 1479
1512 1515 1514 1506 1508 1507 1506 1505 1505 1508 1511 1513 1509 1492 1478 1477 1476 1475 1474 1472 1471 1471 1469 1468 1467 1466 1465 1465 1464 1464 1463 1463 1464 1464 1464 1465 1465 1466 1467 1468 1469 1471 1472 1474
1508 1513 1513 1508 1503 1505 1506 1504 1504 1506 1509 1507 1500 1486 1479 1477 1476 1474 1473 1471 1470 1469 1467 1466 1464 1463 1463 1462 1461 1460 1460 1460 1460 1460 1460 1460 1461 1461 1462 1463 1464 1465 1467 1469
1508 1512 1511 1507 1503 1503 1502 1500 1500 1500 1498 1497 1487 1486 1477 1475 1474 1472 1471 1469 1468 1466 1464 1463 1462 1461 1460 1459 1457 1456 1456 1456 1456 1455 1456 1456 1457 1457 1457 1458 1459 1460 1461 1463
1508 1511 1510 1506 1500 1499 1497 1493 1493 1493 1492 1490 1486 1482 1474 1473 1472 1470 1468 1467 1465 1463 1462 1460 1459 1457 1456 1454 1453 1452 1452 1452 1452 1451 1451 1452 1452 1452 1453 1453 1454 1455 1456 1457
1508 1510 1509 1505 1502 1498 1494 1486 1486 1486 1484 1484 1480 1476 1472 1471 1469 1468 1466 1465 1463 1461 1459 1458 1456 1454 1452 1451 1450 1449 1448 1448 1447 1447 1447 1447 1447 1448 1448 1448 1449 1449 1450 1451
1506 1507 1508 1507 1505 1499 1482 1481 1480 1481 1480 1478 1475 1472 1470 1469 1467 1465 1464 1462 1460 1458 1456 1455 1453 1451 1449 1448 1446 1445 1444 1443 1443 1442 1442 1443 1443 1443 1443 1444 1444 1444 1445 1445
1501 1504 1507 1508 1506 1494 1481 1479 1480 1481 1477 1473 1473 1470 1468 1466 1464 1462 1461 1460 1458 1456 1454 1452 1450 1448 1446 1444 1442 1441 1439 1439 1438 1437 1438 1438 1438 1438 1438 1439 1439 1439 1440 1440
1501 1502 1506 1507 1503 1493 1478 1477 1475 1478 1476 1468 1468 1467 1466 1465 1466 1461 1458 1457 1455 1453 1451 1449 1446 1444 1442 1441 1439 1437 1435 1434 1433 1433 1434 1434 1434 1434 1434 1434 1434 1434 1435 1435
1503 1504 1504 1504 1501 1488 1477 1475 1476 1479 1471 1466 1464 1464 1464 1463 1462 1459 1456 1454 1452 1450 1448 1446 1444 1441 1440 1438 1435 1433 1431 1429 1429 1429 1430 1429 1429 1429 1429 1429 1429 1430 1430 1430
1498 1501 1502 1500 1498 1485 1473 1474 1474 1469 1465 1463 1462 1462 1461 1459 1457 1455 1453 1451 1449 1447 1445 1443 1441 1438 1437 1435 1432 1430 1427 1426 1425 1425 1425 1425 1425 1425 1425 1425 1425 1425 1426 1426
1490 1487 1486 1485 1478 1470 1468 1466 1465 1464 1463 1461 1461 1460 1458 1456 1454 1452 1450 1449 1446 1444 1442 1440 1438 1435 1434 1432 1429 1427 1425 1424 1422 1422 1422 1422 1422 1422 1422 1421 1421 1421 1422 1422
1483 1480 1481 1479 1470 1467 1465 1464 1463 1462 1460 1459 1458 1457 1455 1453 1451 1449 1448 1446 1443 1441 1439 1437 1435 1432 1430 1429 1427 1425 1423 1422 1420 1419 1419 1419 1418 1418 1418 1418 1418 1418 1418 1418
1476 1477 1476 1472 1466 1464 1461 1460 1459 1458 1457 1456 1455 1454 1452 1450 1448 1447 1445 1443 1441 1439 1437 1435 1432 1430 1428 1426 1425 1423 1422 1420 1418 1417 1417 1416 1416 1415 1414 1414 1414 1414 1414 1414
1471 1472 1472 1465 1462 1462 1458 1456 1456 1454 1453 1452 1451 1449 1448 1447 1445 1443 1442 1440 1438 1436 1434 1432 1430 1428 1426 1424 1422 1421 1420 1418 1417 1415 1414 1414 1413 1412 1412 1411 1411 1411 1411 1411